Regional Weather Roundup
Issued by NWS

Home | Current Version | Previous Version | Text Only | Print | Product List | Glossary On
Versions: 1 2 3 4 5 6 7 8 9 10 11 12 13 14 15 16 17 18 19 20 21 22 23 24 25 26 27 28 29 30 31 32 33 34 35 36 37 38 39 40 41 42 43 44 45 46 47 48 49 50
000
ASUS43 KIND 051509
RWRIN

WEATHER ROUNDUP FOR INDIANA
NATIONAL WEATHER SERVICE INDIANAPOLIS IN
1100 AM EDT SUN JUL 05 2015

NOTE: "FAIR" INDICATES FEW OR NO CLOUDS BELOW 12,000 FEET WITH NO
SIGNIFICANT WEATHER AND/OR OBSTRUCTIONS TO VISIBILITY.

* - STATION DOES NOT REPORT WEATHER SUCH AS PRECIPITATION OR FOG.

+ - STATION NOT QUALITY CONTROLLED BY THE NATIONAL WEATHER SERVICE.
    USE DATA WITH CAUTION...ESPECIALLY DEWPOINT AND RELATIVE
    HUMIDITY OBSERVATIONS.

INZ001>003-010>013-019-020-051600-
NORTHWEST INDIANA

CITY           SKY/WX    TMP DP  RH WIND       PRES   REMARKS
GARY /AIRPORT/ SUNNY    N/A N/A N/A CALM      30.10F
KNOX *+        SUNNY     73  59  60 SW3       30.10F
LA PORTE +     SUNNY     77  64  65 S3        30.12S
MICHIGAN CITY+ SUNNY     77  61  57 S3        30.11S
MONTICELLO +   SUNNY     74  64  69 NE3       30.10F
RENSSELAER +   SUNNY     73  64  73 CALM      30.11F
VALPARAISO     SUNNY     76  63  64 SW6       30.11F

$$

LMZ046-743>745-051600-
SOUTHERN LAKE MICHIGAN

STATION/POSITION TIME  TEMP    WIND        PRES    WAVE
                       AIR SEA DIR/SP/G            HT
                 (UTC) (F)     (DEG/KT/KT) (MB)    (FT)
BURNS HARBOR     1500   72      CALM  /  2 1020.0R
MICHIGAN CITY    1500   72     270/  4/  4   N/A
5NW MICH CITY    1500   70 65  280/  2/  2   N/A     0

$$

INZ004-005-014>016-021>024-051600-
NORTH CENTRAL INDIANA

CITY           SKY/WX    TMP DP  RH WIND       PRES   REMARKS
ELKHART        SUNNY     75  59  57 CALM      30.13F
GOSHEN         SUNNY     76  62  62 S3        30.12F
LOGANSPORT +   SUNNY     73  59  60 CALM      30.12S
PERU/GRISSOM   MOSUNNY   75  64  69 SE2       30.10F
ROCHESTER +    SUNNY     79  61  53 CALM      30.12F
SOUTH BEND     SUNNY     76  62  62 VRB5      30.12F
WARSAW +         N/A     75  61  60 CALM      30.12F

$$

INZ006>009-017-018-025>027-051600-
NORTHEAST INDIANA

CITY           SKY/WX    TMP DP  RH WIND       PRES   REMARKS
ANGOLA *+        N/A     79  72  78 SW3       30.13F
AUBURN +       MOSUNNY   73  59  60 CALM      30.14F
FORT WAYNE     CLOUDY    75  61  61 CALM      30.13S
HUNTINGTON +   MOSUNNY   72  61  68 CALM      30.12S

$$

INZ028-029-035-036-043>045-051>053-051600-
WEST CENTRAL INDIANA

CITY           SKY/WX    TMP DP  RH WIND       PRES   REMARKS
CRAWFORDSVL +  MOSUNNY   73  57  57 SE5       30.11R
GREENCASTLE +  PTSUNNY   75  59  57 SE3       30.10S
LAFAYETTE      SUNNY     75  60  59 CALM      30.10S
TERRE HAUTE    MOSUNNY   76  66  71 CALM      30.09R

$$

INZ030>032-037>040-046>048-054>057-064-065-051600-
CENTRAL INDIANA

CITY           SKY/WX    TMP DP  RH WIND       PRES   REMARKS
CP ATTERBURY + PTSUNNY   72  64  78 SE3       30.11S
FISHERS *+     MOSUNNY   75  64  69 E3        30.10F
FRANKFORT +    MOSUNNY   75  63  66 CALM      30.12S
GREENWOOD *+   MOSUNNY   77  59  53 E3        30.10S
INDIANAPOLIS   PTSUNNY   77  60  55 E3        30.08S
-EAGLE CREEK   PTSUNNY   77  60  55 CALM      30.09F
KOKOMO *+      MOSUNNY   72  63  73 CALM      30.11S
MARION +       MOSUNNY   74  61  62 S3        30.13S
MT COMFORT *+  MOSUNNY   77  55  47 E3        30.10F
SHELBYVILLE    MOSUNNY   76  62  62 SE6       30.10R
ZIONSVILLE +   PTSUNNY   76  61  58 CALM      30.11F

$$

INZ033-034-041-042-049-050-058-059-051600-
EAST CENTRAL INDIANA

CITY           SKY/WX    TMP DP  RH WIND       PRES   REMARKS
MUNCIE         MOSUNNY   76  59  55 SE5       30.11F

$$

INZ060-061-067>069-081>083-085>088-051600-
SOUTHWEST INDIANA

CITY           SKY/WX    TMP DP  RH WIND       PRES   REMARKS
EVANSVILLE     PTSUNNY   76  70  82 CALM      30.07S HAZE
HUNTINGBURG *+ PTSUNNY   73  68  83 E3        30.08S
WASHINGTON +   MOSUNNY   78  69  71 E6        30.07S

$$

INZ062-063-066-070>080-084-089>092-051600-
SOUTH CENTRAL AND SOUTHEAST INDIANA

CITY           SKY/WX    TMP DP  RH WIND       PRES   REMARKS
BLOOMINGTON    MOSUNNY   78  66  66 E3        30.09S
MADISON *+     CLOUDY    72  59  64 E5        30.12S
NORTH VERNON + CLOUDY    75  63  64 CALM      30.11R
SEYMOUR +      CLOUDY    75  66  73 E3        30.09S

$$




USA.gov is the U.S. government's official web portal to all federal, state and local government web resources and services.